Flag for Germany Weather past 2 weeks in Aurich, Lower Saxony, Germany

Now
79 °F

Scattered clouds.


Feels Like: 80 °F
Forecast: 64 / 77 °F
Wind: 15 mph from Northeast

Location: Wittmundhaven

Current Time: Jul 22, 2014 at 9:03:23 PM

Latest Report: Jul 22, 2014 at 6:20 PM


Visibility: N/A

Pressure: 30.12 "Hg

Humidity: 54%

Dew point: 61 °F

Location of AurichLocation

Historic Weather in Aurich — Graph

°F

Aurich temperature yesterday

Maximum temperature yesterday: 79 °F (at 6:20 PM)
Minimum temperature yesterday: 66 °F (at 7:20 AM)
Average temperature yesterday: 70 °F

Past Weeks' High & Low Weather Summary

 TemperatureHumidityPressure
High91 °F (Jul 19, 2:20 PM)100% (Jul 8, 2:20 AM)30.18 "Hg (Jul 8, 2:20 AM)
Low54 °F (Jul 15, 4:20 AM)32% (Jul 19, 5:20 PM)29.65 "Hg (Jul 9, 3:20 PM)
Average68 °F75%29.94 "Hg
* Reported Jul 7 6:20 PM — Jul 22 6:20 PM, Aurich, Weather by CustomWeather, © 2014

Note: Actual official high and low records may vary slightly from our data, if they occured in-between our weather recording intervals... More about our weather records

Advertising

Aurich weather history for previous 24 hours

 ConditionsComfort  
Time TempWeatherWind HumidityBarometerVisibility
6:20 PM
Jul 22
79 °FScattered clouds.15 mph54%30.12 "HgN/A
5:20 PM79 °FScattered clouds.15 mph54%30.12 "HgN/A
4:20 PM81 °FScattered clouds.17 mph42%30.12 "HgN/A
3:20 PM81 °FPassing clouds.20 mph45%30.12 "HgN/A
2:20 PM79 °FScattered clouds.21 mph45%30.12 "HgN/A
1:20 PM77 °FScattered clouds.22 mph51%30.12 "HgN/A
12:20 PM75 °FPartly sunny.18 mph61%30.12 "HgN/A
11:20 AM73 °FPartly sunny.18 mph65%30.12 "HgN/A
10:20 AM73 °FPartly sunny.16 mph65%30.12 "HgN/A
9:20 AM72 °FPartly sunny.16 mph69%30.12 "HgN/A
8:20 AM70 °FPartly sunny.15 mph73%30.09 "HgN/A
7:20 AM66 °FPartly sunny.13 mph83%30.09 "HgN/A
6:20 AM63 °FPassing clouds.8 mph94%30.09 "HgN/A
5:20 AM63 °FPassing clouds.8 mph88%30.07 "HgN/A
4:20 AM63 °FPassing clouds.12 mph88%30.07 "HgN/A
3:20 AM63 °FPassing clouds.7 mph88%30.07 "HgN/A
2:20 AM64 °FPassing clouds.9 mph83%30.04 "HgN/A
1:20 AM66 °FPassing clouds.7 mph78%30.04 "HgN/A
12:20 AM68 °FPassing clouds.10 mph78%30.01 "HgN/A
11:20 PM
Jul 21
68 °FPassing clouds.10 mph83%30.01 "HgN/A
10:20 PM70 °FPartly sunny.10 mph78%30.01 "HgN/A
9:20 PM72 °FPartly sunny.13 mph73%29.98 "HgN/A
Weather by CustomWeather, © 2014

See weather overviewHow to use our weather pages